When you browse on this site, cookies collect data to enhance your experience and personalize the content and advertising you see.
Visit our Privacy Policy to learn more. By continuing to use the site, you agree to this use of cookies and data.
  • In United Kingdom
  • List of Countries
  • For 7 days
  • Water Temperature
  • Weather Map
  • Weather Widgets
  • user-avatar
    Login

    Hourly Weather Cugir

    Today, 26 January, Sunday

    Time Temperature Precipitation Wind Pressure Humidity
    00:00 +4°C° 0 mm 1 mps 729 mmHg 83%
    01:00 +4°C° 0 mm 1 mps 729 mmHg 84%
    02:00 +3°C° 0 mm 0 mps 729 mmHg 85%
    03:00 +3°C° 0 mm 0 mps 729 mmHg 85%
    04:00 +3°C° 0 mm 0 mps 729 mmHg 86%
    05:00 +3°C° 0 mm 0 mps 729 mmHg 87%
    06:00 +3°C° 0 mm 0 mps 729 mmHg 87%
    07:00 +3°C° 0 mm 0 mps 729 mmHg 87%
    08:00 +3°C° 0 mm 0 mps 729 mmHg 87%
    09:00 +4°C° 0 mm 0 mps 729 mmHg 84%
    10:00 +5°C° 0 mm 0 mps 730 mmHg 81%
    11:00 +6°C° 0 mm 0 mps 730 mmHg 78%
    12:00 +7°C° 0 mm 0 mps 729 mmHg 76%
    13:00 +7°C° 0 mm 0 mps 729 mmHg 75%
    14:00 +9°C° 0 mm 1 mps 729 mmHg 74%
    15:00 +8°C° 0 mm 1 mps 729 mmHg 78%
    16:00 +6°C° 0 mm 1 mps 728 mmHg 83%
    17:00 +4°C° 0 mm 0 mps 728 mmHg 87%
    18:00 +5°C° 0 mm 1 mps 728 mmHg 87%
    19:00 +4°C° 0 mm 1 mps 728 mmHg 87%
    20:00 +4°C° 0 mm 1 mps 728 mmHg 87%
    21:00 +4°C° 0 mm 1 mps 728 mmHg 87%
    22:00 +4°C° 0 mm 1 mps 728 mmHg 87%
    23:00 +4°C° 0 mm 1 mps 727 mmHg 87%

    Tomorrow, 27 January, Monday

    Time Temperature Precipitation Wind Pressure Humidity
    00:00 +4°C° 0 mm 1 mps 727 mmHg 87%
    01:00 +4°C° 0 mm 1 mps 727 mmHg 87%
    02:00 +4°C° 0 mm 1 mps 727 mmHg 87%
    03:00 +3°C° 0 mm 1 mps 727 mmHg 87%
    04:00 +3°C° 0 mm 1 mps 726 mmHg 87%
    05:00 +2°C° 0 mm 0 mps 726 mmHg 87%
    06:00 +2°C° 0 mm 0 mps 726 mmHg 87%
    07:00 +3°C° 0 mm 1 mps 725 mmHg 87%
    08:00 +3°C° 0 mm 1 mps 725 mmHg 87%
    09:00 +4°C° 0 mm 1 mps 725 mmHg 83%
    10:00 +5°C° 0 mm 1 mps 726 mmHg 79%
    11:00 +7°C° 0 mm 1 mps 726 mmHg 75%
    12:00 +7°C° 0 mm 1 mps 725 mmHg 77%
    13:00 +6°C° 0 mm 0 mps 725 mmHg 78%
    14:00 +6°C° 0 mm 0 mps 725 mmHg 80%
    15:00 +5°C° 0.2 mm 0 mps 725 mmHg 85%
    16:00 +4°C° 0.2 mm 0 mps 725 mmHg 89%
    17:00 +4°C° 0.2 mm 0 mps 725 mmHg 93%
    18:00 +4°C° 0.5 mm 0 mps 724 mmHg 95%
    19:00 +3°C° 0.5 mm 0 mps 724 mmHg 96%
    20:00 +3°C° 0.5 mm 0 mps 724 mmHg 97%
    21:00 +3°C° 0.2 mm 0 mps 724 mmHg 97%
    22:00 +3°C° 0.2 mm 0 mps 724 mmHg 97%
    23:00 +3°C° 0.2 mm 0 mps 724 mmHg 97%

    Day after tomorrow, 28 January, Tuesday

    Time Temperature Precipitation Wind Pressure Humidity
    00:00 +3°C° 0.1 mm 0 mps 724 mmHg 98%
    01:00 +3°C° 0.1 mm 0 mps 724 mmHg 98%
    02:00 +3°C° 0.1 mm 0 mps 723 mmHg 98%
    03:00 +3°C° 0.1 mm 0 mps 723 mmHg 98%
    04:00 +3°C° 0.1 mm 0 mps 723 mmHg 98%
    05:00 +3°C° 0.1 mm 0 mps 723 mmHg 98%
    06:00 +3°C° 0 mm 0 mps 722 mmHg 97%
    07:00 +3°C° 0 mm 0 mps 722 mmHg 97%
    08:00 +3°C° 0 mm 0 mps 722 mmHg 96%
    09:00 +4°C° 0 mm 0 mps 722 mmHg 92%
    10:00 +5°C° 0 mm 0 mps 722 mmHg 88%
    11:00 +5°C° 0 mm 0 mps 722 mmHg 84%
    12:00 +7°C° 0 mm 1 mps 721 mmHg 81%
    13:00 +8°C° 0 mm 1 mps 721 mmHg 77%
    14:00 +8°C° 0 mm 1 mps 720 mmHg 74%
    15:00 +8°C° 0 mm 1 mps 720 mmHg 78%
    16:00 +7°C° 0 mm 1 mps 719 mmHg 81%
    17:00 +6°C° 0 mm 1 mps 719 mmHg 85%
    18:00 +6°C° 0 mm 1 mps 718 mmHg 85%
    19:00 +6°C° 0 mm 1 mps 718 mmHg 85%
    20:00 +5°C° 0 mm 1 mps 718 mmHg 85%
    21:00 +4°C° 0.2 mm 2 mps 717 mmHg 86%
    22:00 +4°C° 0.2 mm 2 mps 716 mmHg 87%
    23:00 +4°C° 0.2 mm 2 mps 716 mmHg 88%

    29 January, Wednesday

    Time Temperature Precipitation Wind Pressure Humidity
    00:00 +4°C° 0.7 mm 2 mps 715 mmHg 89%
    01:00 +5°C° 0.7 mm 2 mps 715 mmHg 90%
    02:00 +5°C° 0.7 mm 2 mps 714 mmHg 91%
    03:00 +3°C° 0.4 mm 4 mps 714 mmHg 92%
    04:00 +1°C° 0.4 mm 5 mps 715 mmHg 93%
    05:00 0°C° 0.4 mm 7 mps 715 mmHg 94%
    06:00 -1°C° 0.3 mm 6 mps 715 mmHg 92%
    07:00 -2°C° 0.3 mm 6 mps 716 mmHg 91%
    08:00 -2°C° 0.3 mm 5 mps 717 mmHg 89%
    09:00 -1°C° 0 mm 5 mps 717 mmHg 83%
    10:00 0°C° 0 mm 5 mps 718 mmHg 77%
    11:00 0°C° 0 mm 5 mps 718 mmHg 71%
    12:00 +1°C° 0 mm 5 mps 718 mmHg 68%
    13:00 +3°C° 0 mm 4 mps 718 mmHg 65%
    14:00 +3°C° 0 mm 4 mps 718 mmHg 62%
    15:00 +3°C° 0 mm 3 mps 718 mmHg 66%
    16:00 +3°C° 0 mm 2 mps 718 mmHg 69%
    17:00 +3°C° 0 mm 1 mps 718 mmHg 72%
    18:00 +3°C° 0 mm 1 mps 718 mmHg 72%
    19:00 +2°C° 0 mm 1 mps 718 mmHg 71%
    20:00 +1°C° 0 mm 2 mps 719 mmHg 71%
    21:00 +1°C° 0 mm 2 mps 719 mmHg 72%
    22:00 +1°C° 0 mm 2 mps 719 mmHg 74%
    23:00 0°C° 0 mm 3 mps 719 mmHg 75%

    30 January, Thursday

    Time Temperature Precipitation Wind Pressure Humidity
    00:00 0°C° 0 mm 3 mps 720 mmHg 79%
    01:00 -2°C° 0 mm 4 mps 720 mmHg 84%
    02:00 -2°C° 0 mm 5 mps 720 mmHg 88%
    03:00 -2°C° 0.3 mm 5 mps 720 mmHg 90%
    04:00 -2°C° 0.3 mm 5 mps 720 mmHg 91%
    05:00 -2°C° 0.3 mm 5 mps 720 mmHg 93%
    06:00 -2°C° 0.3 mm 5 mps 721 mmHg 92%
    07:00 -2°C° 0.3 mm 5 mps 721 mmHg 91%
    08:00 -2°C° 0.3 mm 5 mps 721 mmHg 90%
    09:00 -2°C° 0.1 mm 5 mps 722 mmHg 87%
    10:00 -2°C° 0.1 mm 5 mps 722 mmHg 84%
    11:00 -1°C° 0.1 mm 4 mps 722 mmHg 81%
    12:00 -1°C° 0.1 mm 4 mps 722 mmHg 80%
    13:00 -1°C° 0.1 mm 4 mps 723 mmHg 79%
    14:00 0°C° 0.1 mm 4 mps 723 mmHg 78%
    15:00 -1°C° 0.1 mm 4 mps 723 mmHg 80%
    16:00 -1°C° 0.1 mm 4 mps 723 mmHg 82%
    17:00 -2°C° 0.1 mm 4 mps 724 mmHg 85%
    18:00 -2°C° 0 mm 4 mps 724 mmHg 85%
    19:00 -2°C° 0 mm 4 mps 725 mmHg 85%
    20:00 -2°C° 0 mm 4 mps 725 mmHg 85%
    21:00 -3°C° 0 mm 4 mps 725 mmHg 86%
    22:00 -3°C° 0 mm 4 mps 725 mmHg 86%
    23:00 -3°C° 0 mm 4 mps 726 mmHg 87%

    31 January, Friday

    Time Temperature Precipitation Wind Pressure Humidity
    00:00 -2°C° 0.1 mm 3 mps 726 mmHg 88%
    01:00 -2°C° 0.1 mm 3 mps 726 mmHg 88%
    02:00 -2°C° 0.1 mm 3 mps 726 mmHg 89%
    03:00 -2°C° 0 mm 3 mps 726 mmHg 88%
    04:00 -2°C° 0 mm 2 mps 726 mmHg 87%
    05:00 -3°C° 0 mm 2 mps 726 mmHg 87%
    06:00 -3°C° 0 mm 2 mps 726 mmHg 85%
    07:00 -2°C° 0 mm 2 mps 726 mmHg 83%
    08:00 0°C° 0 mm 1 mps 726 mmHg 81%
    09:00 -1°C° 0 mm 2 mps 726 mmHg 74%
    10:00 +1°C° 0 mm 2 mps 726 mmHg 67%
    11:00 +3°C° 0 mm 2 mps 726 mmHg 60%
    12:00 +2°C° 0 mm 3 mps 726 mmHg 58%
    13:00 +3°C° 0 mm 3 mps 725 mmHg 56%
    14:00 +4°C° 0 mm 4 mps 725 mmHg 54%
    15:00 +3°C° 0 mm 3 mps 725 mmHg 59%
    16:00 +2°C° 0 mm 3 mps 725 mmHg 64%
    17:00 +2°C° 0 mm 2 mps 725 mmHg 69%
    18:00 +2°C° 0 mm 2 mps 725 mmHg 71%
    19:00 +1°C° 0 mm 2 mps 725 mmHg 73%
    20:00 +1°C° 0 mm 2 mps 725 mmHg 75%
    21:00 +1°C° 0 mm 2 mps 725 mmHg 75%
    22:00 +1°C° 0 mm 2 mps 725 mmHg 76%
    23:00 +1°C° 0 mm 2 mps 725 mmHg 77%
    Show more